ELY398 LEMD-LLBG

Flight info

Callsign ELY398
Flight time N/A
Altitude 38000
Route PINAR N870 BCN/N0483F370 DCT DIPES/N0481F380 N725 OSPOK/N0483F370 DCT NOLVI DCT ORKUM/N0480F380 DCT ELSAG DCT ALG DCT ROXAN/N0484F390 DCT LODPA DCT RUTOM UM601 TRL DCT VANZA DCT PIKOG L609 ZUKKO
Aircraft B789/H-SDE1E2E3FGHIJ2J3J4J5M1RWXY/LB1D1

Departure

Time 2026-04-30 20:34
Airport Adolfo Suárez Madrid–Barajas Airport (LEMD)

Arrival

Time N/A
Airport Ben Gurion International Airport (LLBG)
Time Latitude Longitude Altitude Speed Heading
2026-04-30 20:30 40.49249 -3.57462 2011 ft 0 kts 360°
2026-04-30 20:33 40.49250 -3.57462 2011 ft 0 kts 360°
2026-04-30 20:34 40.49801 -3.57464 2011 ft 124 kts
2026-04-30 20:34 40.52278 -3.57466 3024 ft 190 kts
2026-04-30 20:35 40.53575 -3.57485 4317 ft 182 kts 359°
2026-04-30 20:35 40.54867 -3.57436 5310 ft 194 kts
2026-04-30 20:35 40.57630 -3.56491 6776 ft 221 kts 15°
2026-04-30 20:36 40.59160 -3.55927 7344 ft 237 kts 15°
2026-04-30 20:36 40.60808 -3.55317 7877 ft 255 kts 15°
2026-04-30 20:36 40.64431 -3.54227 9292 ft 271 kts
2026-04-30 20:37 40.66299 -3.54032 10310 ft 267 kts
2026-04-30 20:37 40.68144 -3.53863 11188 ft 266 kts
2026-04-30 20:37 40.70001 -3.53517 11769 ft 279 kts 16°
2026-04-30 20:37 40.71684 -3.52097 12120 ft 300 kts 45°
2026-04-30 20:38 40.72882 -3.49771 12609 ft 314 kts 60°
2026-04-30 20:38 40.74002 -3.47208 13062 ft 331 kts 60°
2026-04-30 20:38 40.75235 -3.44540 13485 ft 350 kts 58°
2026-04-30 20:39 40.78042 -3.38894 14389 ft 385 kts 56°
2026-04-30 20:39 40.79564 -3.35921 14997 ft 397 kts 56°
2026-04-30 20:39 40.81132 -3.32885 15756 ft 403 kts 56°
2026-04-30 20:40 40.84174 -3.26539 17264 ft 415 kts 66°
2026-04-30 20:40 40.85225 -3.22965 18071 ft 419 kts 71°
2026-04-30 20:40 40.86158 -3.19304 18848 ft 423 kts 73°
2026-04-30 20:41 40.87848 -3.11762 20290 ft 433 kts 75°
2026-04-30 20:41 40.88642 -3.07895 20988 ft 438 kts 76°
2026-04-30 20:41 40.89424 -3.03991 21663 ft 443 kts 76°
2026-04-30 20:41 40.90209 -3.00030 22337 ft 447 kts 76°
2026-04-30 20:42 40.90996 -2.96039 23014 ft 451 kts 76°
2026-04-30 20:42 40.91791 -2.92000 23642 ft 456 kts 76°
2026-04-30 20:42 40.93120 -2.85217 24647 ft 463 kts 76°
2026-04-30 20:43 40.93933 -2.81055 25196 ft 469 kts 76°
2026-04-30 20:43 40.94749 -2.76868 25739 ft 474 kts 76°
2026-04-30 20:43 40.95575 -2.72619 26278 ft 478 kts 77°
2026-04-30 20:44 40.97240 -2.64028 27296 ft 487 kts 77°
2026-04-30 20:44 40.98083 -2.59664 27789 ft 491 kts 77°
2026-04-30 20:44 40.99766 -2.50871 28714 ft 500 kts 77°
2026-04-30 20:45 41.01478 -2.41883 29588 ft 508 kts 77°
2026-04-30 20:45 41.02341 -2.37336 30019 ft 511 kts 77°
2026-04-30 20:45 41.03212 -2.32749 30461 ft 514 kts 77°
2026-04-30 20:46 41.05836 -2.18874 31861 ft 520 kts 77°
2026-04-30 20:46 41.06710 -2.14229 32364 ft 521 kts 77°
2026-04-30 20:47 41.08452 -2.04929 33531 ft 518 kts 77°
2026-04-30 20:47 41.09316 -2.00295 34128 ft 516 kts 77°
2026-04-30 20:48 41.11028 -1.91070 35159 ft 514 kts 77°
2026-04-30 20:48 41.11880 -1.86462 35653 ft 514 kts 77°
2026-04-30 20:48 41.12726 -1.81876 36139 ft 513 kts 77°
2026-04-30 20:48 41.13574 -1.77272 36620 ft 511 kts 77°
2026-04-30 20:49 41.14413 -1.72705 37083 ft 510 kts 77°
2026-04-30 20:49 41.15251 -1.68130 37521 ft 508 kts 77°
2026-04-30 20:49 41.16074 -1.63630 37879 ft 509 kts 77°
2026-04-30 20:50 41.17736 -1.54504 38131 ft 507 kts 77°
2026-04-30 20:50 41.19381 -1.45428 38140 ft 504 kts 78°
2026-04-30 20:51 41.21016 -1.36369 38149 ft 505 kts 78°
2026-04-30 20:51 41.23456 -1.22771 38134 ft 505 kts 78°
2026-04-30 20:52 41.25110 -1.13498 38147 ft 506 kts 78°
2026-04-30 20:52 41.26730 -1.04374 38708 ft 507 kts 78°
2026-04-30 20:53 41.27537 -0.99812 39060 ft 507 kts 78°
2026-04-30 20:53 41.28342 -0.95250 39387 ft 506 kts 78°
2026-04-30 20:53 41.29145 -0.90686 39678 ft 507 kts 78°
2026-04-30 20:54 41.30748 -0.81547 40085 ft 509 kts 78°
2026-04-30 20:54 41.31548 -0.76964 40098 ft 509 kts 78°
2026-04-30 20:55 41.33912 -0.63351 40115 ft 505 kts 78°
2026-04-30 20:55 41.34930 -0.54129 40132 ft 503 kts 87°
2026-04-30 20:56 41.35266 -0.40179 40110 ft 502 kts 91°
2026-04-30 20:57 41.35187 -0.26247 40134 ft 502 kts 92°
2026-04-30 20:57 41.35101 -0.16952 40151 ft 502 kts 92°
2026-04-30 20:58 41.34960 -0.03030 40140 ft 502 kts 92°
2026-04-30 20:58 41.34857 0.06288 40137 ft 507 kts 92°
2026-04-30 20:59 41.34691 0.20453 40148 ft 513 kts 92°
2026-04-30 21:00 41.34437 0.39407 40150 ft 513 kts 92°
2026-04-30 21:01 41.34222 0.53629 40136 ft 512 kts 92°
2026-04-30 21:02 41.33996 0.67893 40149 ft 514 kts 92°
2026-04-30 21:02 41.33834 0.77402 40135 ft 514 kts 92°
2026-04-30 21:03 41.33660 0.86912 40143 ft 515 kts 92°
2026-04-30 21:03 41.33482 0.96445 40145 ft 515 kts 92°
2026-04-30 21:04 41.33296 1.05953 40134 ft 515 kts 92°
2026-04-30 21:04 41.33002 1.20193 40151 ft 516 kts 92°
2026-04-30 21:05 41.32795 1.29755 40138 ft 516 kts 92°
2026-04-30 21:05 41.32580 1.39312 40147 ft 517 kts 92°
2026-04-30 21:06 41.32356 1.48889 40152 ft 519 kts 92°
2026-04-30 21:06 41.32123 1.58476 40140 ft 518 kts 92°
2026-04-30 21:07 41.31885 1.68054 40152 ft 518 kts 92°
2026-04-30 21:07 41.31638 1.77642 40151 ft 519 kts 92°
2026-04-30 21:08 41.31381 1.87246 40143 ft 519 kts 92°
2026-04-30 21:08 41.31118 1.96773 40153 ft 519 kts 92°
2026-04-30 21:09 41.30789 2.06389 40137 ft 522 kts 96°
2026-04-30 21:09 41.29746 2.15931 40142 ft 521 kts 102°
2026-04-30 21:10 41.28315 2.25358 40147 ft 520 kts 104°
2026-04-30 21:10 41.26757 2.34754 40157 ft 520 kts 104°
2026-04-30 21:11 41.25183 2.44142 40146 ft 520 kts 104°
2026-04-30 21:11 41.23627 2.53500 40141 ft 519 kts 103°
2026-04-30 21:12 41.22059 2.62869 40155 ft 519 kts 104°
2026-04-30 21:12 41.20478 2.72229 40145 ft 519 kts 104°
2026-04-30 21:13 41.18901 2.81513 40150 ft 519 kts 104°
2026-04-30 21:13 41.17302 2.90867 40167 ft 520 kts 104°
2026-04-30 21:14 41.15697 3.00212 40158 ft 520 kts 104°
2026-04-30 21:14 41.14080 3.09560 40154 ft 519 kts 104°
2026-04-30 21:15 41.12458 3.18905 40165 ft 521 kts 104°
2026-04-30 21:15 41.10828 3.28271 40152 ft 521 kts 104°
2026-04-30 21:16 41.09188 3.37621 40153 ft 521 kts 104°
2026-04-30 21:16 41.07539 3.46961 40156 ft 521 kts 104°
2026-04-30 21:17 41.05882 3.56314 40142 ft 521 kts 104°
2026-04-30 21:17 41.04222 3.65644 40151 ft 521 kts 104°
2026-04-30 21:18 41.02551 3.74981 40147 ft 521 kts 104°
2026-04-30 21:18 41.00869 3.84332 40141 ft 522 kts 104°
2026-04-30 21:19 40.99192 3.93601 40158 ft 522 kts 105°
2026-04-30 21:19 40.97491 4.02950 40148 ft 523 kts 104°
2026-04-30 21:20 40.95782 4.12315 40141 ft 524 kts 104°
2026-04-30 21:20 40.94062 4.21695 40150 ft 525 kts 104°
2026-04-30 21:21 40.92333 4.31065 40147 ft 524 kts 104°
2026-04-30 21:22 40.89724 4.45111 40148 ft 524 kts 105°
2026-04-30 21:23 40.86241 4.63835 40134 ft 525 kts 103°
2026-04-30 21:23 40.84605 4.78144 40145 ft 527 kts 97°
2026-04-30 21:24 40.83747 4.87682 40136 ft 526 kts 97°
2026-04-30 21:24 40.82856 4.97280 40150 ft 526 kts 97°
2026-04-30 21:25 40.81494 5.11661 40138 ft 527 kts 97°
2026-04-30 21:26 40.80110 5.26070 40150 ft 527 kts 97°
2026-04-30 21:27 40.78708 5.40475 40136 ft 527 kts 97°
2026-04-30 21:27 40.77765 5.50074 40151 ft 529 kts 97°
2026-04-30 21:28 40.76492 5.62881 40138 ft 528 kts 97°
2026-04-30 21:29 40.75043 5.77278 40154 ft 528 kts 98°
2026-04-30 21:30 40.72587 6.01277 40154 ft 528 kts 98°
2026-04-30 21:31 40.70066 6.25331 40154 ft 530 kts 98°
2026-04-30 21:32 40.68537 6.39710 40152 ft 530 kts 98°
2026-04-30 21:32 40.67506 6.49334 40142 ft 530 kts 98°
2026-04-30 21:33 40.65941 6.63765 40155 ft 530 kts 98°
2026-04-30 21:34 40.64886 6.73383 40143 ft 532 kts 98°
2026-04-30 21:34 40.63286 6.87829 40156 ft 531 kts 98°
2026-04-30 21:35 40.62208 6.97464 40143 ft 532 kts 98°
2026-04-30 21:35 40.61123 7.07101 40133 ft 532 kts 98°
2026-04-30 21:36 40.60029 7.16737 40144 ft 532 kts 98°
2026-04-30 21:37 40.57820 7.35977 40133 ft 533 kts 98°
2026-04-30 21:37 40.56910 7.45660 40133 ft 534 kts 90°
2026-04-30 21:38 40.57112 7.55394 40147 ft 532 kts 84°
2026-04-30 21:38 40.57827 7.65071 40130 ft 531 kts 81°
2026-04-30 21:39 40.58668 7.74725 40144 ft 532 kts 81°
2026-04-30 21:39 40.59504 7.84393 40142 ft 532 kts 81°
2026-04-30 21:40 40.60322 7.94067 40135 ft 532 kts 81°
2026-04-30 21:40 40.61127 8.03732 40149 ft 532 kts 82°
2026-04-30 21:41 40.61922 8.13403 40139 ft 532 kts 82°
2026-04-30 21:41 40.62707 8.23024 40140 ft 531 kts 82°
2026-04-30 21:42 40.63487 8.32704 40148 ft 531 kts 82°
2026-04-30 21:42 40.64259 8.42379 40135 ft 531 kts 82°
2026-04-30 21:43 40.65023 8.52066 40146 ft 531 kts 82°
2026-04-30 21:43 40.65779 8.61752 40150 ft 531 kts 82°
2026-04-30 21:44 40.66527 8.71449 40145 ft 532 kts 82°
2026-04-30 21:44 40.67266 8.81145 40162 ft 533 kts 82°
2026-04-30 21:45 40.67995 8.90804 40166 ft 533 kts 82°
2026-04-30 21:45 40.68718 9.00512 40171 ft 532 kts 82°
2026-04-30 21:46 40.69435 9.10220 40185 ft 532 kts 82°
2026-04-30 21:46 40.70142 9.19924 40190 ft 532 kts 82°
2026-04-30 21:47 40.70842 9.29635 40188 ft 533 kts 82°
2026-04-30 21:47 40.71534 9.39376 40202 ft 533 kts 82°
2026-04-30 21:48 40.72219 9.49116 40195 ft 533 kts 82°
2026-04-30 21:48 40.72896 9.58852 40198 ft 534 kts 82°
2026-04-30 21:49 40.73566 9.68612 40206 ft 534 kts 82°
2026-04-30 21:49 40.74227 9.78365 40192 ft 534 kts 82°
2026-04-30 21:50 40.74880 9.88139 40201 ft 535 kts 82°
2026-04-30 21:50 40.75523 9.97913 40200 ft 535 kts 82°
2026-04-30 21:51 40.76156 10.07638 40188 ft 535 kts 82°
2026-04-30 21:51 40.76787 10.17401 40199 ft 535 kts 82°
2026-04-30 21:52 40.77408 10.27175 40191 ft 535 kts 82°
2026-04-30 21:52 40.78021 10.36960 40184 ft 534 kts 82°
2026-04-30 21:53 40.78625 10.46749 40196 ft 535 kts 82°
2026-04-30 21:53 40.79223 10.56549 40184 ft 535 kts 83°
2026-04-30 21:54 40.79810 10.66338 40190 ft 535 kts 83°
2026-04-30 21:54 40.80388 10.76122 40191 ft 535 kts 83°
2026-04-30 21:55 40.80959 10.85916 40180 ft 535 kts 83°
2026-04-30 21:55 40.81523 10.95722 40191 ft 535 kts 83°
2026-04-30 21:56 40.82077 11.05516 40184 ft 535 kts 83°
2026-04-30 21:56 40.82559 11.15321 40146 ft 538 kts 88°
2026-04-30 21:57 40.82181 11.20255 40153 ft 540 kts 99°
2026-04-30 21:57 40.81329 11.25086 40190 ft 542 kts 104°
2026-04-30 21:57 40.79040 11.34577 40169 ft 543 kts 110°
2026-04-30 21:58 40.76354 11.43835 40163 ft 543 kts 112°
2026-04-30 21:58 40.73552 11.53082 40175 ft 543 kts 112°
2026-04-30 21:59 40.70744 11.62354 40164 ft 545 kts 112°
2026-04-30 22:00 40.66550 11.76266 40144 ft 545 kts 112°
2026-04-30 22:00 40.62329 11.90205 40155 ft 547 kts 112°
2026-04-30 22:01 40.59499 11.99484 40140 ft 547 kts 112°
2026-04-30 22:01 40.56654 12.08780 40152 ft 548 kts 112°
2026-04-30 22:02 40.53801 12.18068 40137 ft 548 kts 112°
2026-04-30 22:02 40.50943 12.27341 40133 ft 547 kts 112°
2026-04-30 22:03 40.48079 12.36603 40151 ft 548 kts 112°
2026-04-30 22:03 40.45204 12.45865 40145 ft 547 kts 112°
2026-04-30 22:04 40.42347 12.55036 40129 ft 547 kts 112°
2026-04-30 22:05 40.38021 12.68862 40133 ft 546 kts 112°
2026-04-30 22:05 40.35124 12.78086 40132 ft 546 kts 112°
2026-04-30 22:06 40.32232 12.87267 40121 ft 546 kts 112°
2026-04-30 22:06 40.27874 13.01038 40145 ft 545 kts 112°
2026-04-30 22:07 40.24960 13.10218 40144 ft 544 kts 112°
2026-04-30 22:07 40.22069 13.19288 40144 ft 544 kts 112°
2026-04-30 22:08 40.19145 13.28431 40155 ft 544 kts 112°
2026-04-30 22:08 40.16219 13.37548 40141 ft 543 kts 112°
2026-04-30 22:09 40.13287 13.46654 40152 ft 544 kts 113°
2026-04-30 22:09 40.10348 13.55752 40161 ft 544 kts 113°
2026-04-30 22:10 40.07400 13.64848 40148 ft 544 kts 113°
2026-04-30 22:10 40.04440 13.73950 40160 ft 543 kts 113°
2026-04-30 22:11 39.99991 13.87575 40186 ft 544 kts 113°
2026-04-30 22:12 39.97024 13.96625 40177 ft 544 kts 113°
2026-04-30 22:12 39.94057 14.05646 40177 ft 544 kts 113°
2026-04-30 22:13 39.91073 14.14691 40184 ft 544 kts 113°
2026-04-30 22:13 39.88078 14.23737 40171 ft 544 kts 113°
2026-04-30 22:14 39.85073 14.32784 40160 ft 543 kts 113°
2026-04-30 22:14 39.82069 14.41803 40178 ft 544 kts 114°
2026-04-30 22:15 39.79057 14.50813 40180 ft 544 kts 114°
2026-04-30 22:15 39.76036 14.59824 40170 ft 543 kts 114°
2026-04-30 22:16 39.73018 14.68796 40181 ft 542 kts 114°
2026-04-30 22:17 39.67468 14.85223 40170 ft 542 kts 114°
2026-04-30 22:17 39.62907 14.98651 40191 ft 542 kts 114°
2026-04-30 22:18 39.58324 15.12079 40186 ft 542 kts 114°
2026-04-30 22:19 39.53733 15.25471 40204 ft 542 kts 114°
2026-04-30 22:20 39.49126 15.38846 40197 ft 541 kts 114°
2026-04-30 22:20 39.44527 15.52134 40205 ft 542 kts 114°
2026-04-30 22:21 39.41439 15.61024 40192 ft 542 kts 114°
2026-04-30 22:21 39.38345 15.69902 40196 ft 541 kts 114°
2026-04-30 22:22 39.35241 15.78784 40190 ft 542 kts 114°
2026-04-30 22:22 39.32136 15.87641 40190 ft 541 kts 115°
2026-04-30 22:23 39.29023 15.96492 40186 ft 542 kts 115°
2026-04-30 22:23 39.25902 16.05340 40168 ft 540 kts 115°
2026-04-30 22:24 39.22783 16.14156 40175 ft 540 kts 115°
2026-04-30 22:24 39.19658 16.22960 40186 ft 540 kts 115°
2026-04-30 22:25 39.16548 16.31807 40167 ft 542 kts 112°
2026-04-30 22:25 39.14186 16.40990 40185 ft 541 kts 105°
2026-04-30 22:26 39.11109 16.54978 40161 ft 541 kts 105°
2026-04-30 22:27 39.09019 16.64210 40161 ft 541 kts 105°
2026-04-30 22:27 39.05800 16.78140 40147 ft 541 kts 105°
2026-04-30 22:28 39.02562 16.92054 40149 ft 541 kts 105°
2026-04-30 22:29 38.98223 17.10583 40138 ft 542 kts 105°
2026-04-30 22:31 38.90554 17.42971 40147 ft 542 kts 106°
2026-04-30 22:32 38.85030 17.66027 40146 ft 542 kts 106°
2026-04-30 22:33 38.79447 17.89104 40142 ft 542 kts 106°
2026-04-30 22:35 38.73804 18.12135 40131 ft 541 kts 107°
2026-04-30 22:36 38.68127 18.35097 40097 ft 540 kts 107°
2026-04-30 22:37 38.63587 18.53354 40094 ft 540 kts 107°
2026-04-30 22:38 38.59009 18.71624 40083 ft 539 kts 107°
2026-04-30 22:39 38.55558 18.85306 40072 ft 538 kts 108°
2026-04-30 22:40 38.48554 19.12525 40059 ft 537 kts 108°
2026-04-30 22:41 38.42627 19.34984 40053 ft 535 kts 108°
2026-04-30 22:43 38.35460 19.61882 40042 ft 534 kts 108°
2026-04-30 22:44 38.30647 19.79780 40046 ft 534 kts 108°
2026-04-30 22:45 38.23403 20.06467 40033 ft 533 kts 108°
2026-04-30 22:47 38.16082 20.33158 40024 ft 533 kts 109°
2026-04-30 22:48 38.10965 20.50829 40033 ft 533 kts 113°
2026-04-30 22:49 38.01555 20.76337 40040 ft 532 kts 116°
2026-04-30 22:51 37.91886 21.01791 40032 ft 535 kts 116°
2026-04-30 22:52 37.87032 21.14497 40037 ft 535 kts 116°
2026-04-30 22:53 37.80533 21.31426 40023 ft 534 kts 117°
2026-04-30 22:53 37.75650 21.44083 40029 ft 534 kts 117°
2026-04-30 22:55 37.67477 21.65156 40035 ft 534 kts 117°
2026-04-30 22:56 37.60919 21.81958 40022 ft 534 kts 117°
2026-04-30 22:57 37.52685 22.02928 40019 ft 534 kts 117°
2026-04-30 22:58 37.46087 22.19632 40020 ft 534 kts 118°
2026-04-30 22:59 37.36929 22.45170 40017 ft 535 kts 110°